Location: Puketoi
(40.5833°S, 176.0167°E)
Time: 15:32:55
(UTC+00:00)

Cosmos 2082 Rocket - Pass Details

Date: 08 February 2023
Orbit: 833 x 853 km, 71.0° (Epoch: 22 March)

Event Time Altitude Azimuth Distance (km) Brightness Sun altitude
Rises 12:16:10 0° 217° (SW) 3,428 6.1 -34.3°
Reaches altitude 10° 12:19:01 10° 229° (SW) 2,488 5.1 -34.4°
Enters shadow 12:21:22 20° 250° (WSW) 1,895 4.2 -34.4°
